Time,TemperatureF,DewpointF,PressureIn,WindDirection,WindDirectionDegrees,WindSpeedMPH,WindSpeedGustMPH,Humidity,HourlyPrecipIn,Conditions,Clouds,dailyrainin,SoftwareType,DateUTC
2013-04-07 00:03:00,24.0,8.0,-100.00,ENE,75,0.0,1.0,49,0.00,,,-99.99,,2013-04-07 04:03:00,
2013-04-07 00:14:00,24.0,8.0,-100.00,NNW,335,1.0,2.0,49,0.00,,,-99.99,,2013-04-07 04:14:00,
2013-04-07 00:23:00,24.0,8.0,-100.00,NNW,345,1.0,2.0,49,0.00,,,-99.99,,2013-04-07 04:23:00,
2013-04-07 00:32:00,24.0,8.0,-100.00,NNW,335,1.0,2.0,50,0.00,,,-99.99,,2013-04-07 04:32:00,
2013-04-07 00:43:00,23.0,8.0,-100.00,NNW,340,1.0,2.0,50,0.00,,,-99.99,,2013-04-07 04:43:00,
2013-04-07 00:52:00,24.0,8.0,-100.00,NNW,340,1.0,1.0,49,0.00,,,-99.99,,2013-04-07 04:52:00,
2013-04-07 01:02:00,24.0,7.0,-100.00,NNW,335,1.0,1.0,47,0.00,,,-99.99,,2013-04-07 05:02:00,
2013-04-07 01:12:00,24.0,8.0,-100.00,ENE,60,0.0,1.0,48,0.00,,,-99.99,,2013-04-07 05:12:00,
2013-04-07 01:23:00,24.0,6.0,-100.00,SW,235,0.0,1.0,45,0.00,,,-99.99,,2013-04-07 05:23:00,
2013-04-07 01:33:00,25.0,8.0,-100.00,SE,145,1.0,1.0,47,0.00,,,-99.99,,2013-04-07 05:33:00,
2013-04-07 01:43:00,25.0,8.0,-100.00,SE,140,1.0,2.0,48,0.00,,,-99.99,,2013-04-07 05:43:00,
2013-04-07 01:52:00,25.0,8.0,-100.00,SE,135,1.0,2.0,48,0.00,,,-99.99,,2013-04-07 05:52:00,
2013-04-07 02:02:00,25.0,9.0,-100.00,North,-999,-999.0,-999.0,49,0.00,,,-99.99,,2013-04-07 06:02:00,
2013-04-07 02:12:00,24.0,8.0,-100.00,NNE,30,0.0,1.0,49,0.00,,,-99.99,,2013-04-07 06:12:00,
2013-04-07 02:22:00,24.0,9.0,-100.00,North,350,1.0,1.0,52,0.00,,,-99.99,,2013-04-07 06:22:00,
2013-04-07 02:42:00,24.0,8.0,-100.00,North,10,0.0,2.0,51,0.00,,,-99.99,,2013-04-07 06:42:00,
2013-04-07 02:52:00,23.0,9.0,-100.00,NNW,340,1.0,1.0,53,0.00,,,-99.99,,2013-04-07 06:52:00,
2013-04-07 03:02:00,23.0,9.0,-100.00,North,0,0.0,1.0,54,0.00,,,-99.99,,2013-04-07 07:02:00,
2013-04-07 03:12:00,23.0,9.0,-100.00,NW,315,1.0,1.0,55,0.00,,,-99.99,,2013-04-07 07:12:00,
2013-04-07 03:22:00,23.0,9.0,-100.00,NNE,25,1.0,1.0,55,0.00,,,-99.99,,2013-04-07 07:22:00,
2013-04-07 03:32:00,23.0,11.0,-100.00,WSW,255,0.0,1.0,60,0.00,,,-99.99,,2013-04-07 07:32:00,
2013-04-07 03:42:00,22.0,9.0,-100.00,North,350,0.0,1.0,56,0.00,,,-99.99,,2013-04-07 07:42:00,
2013-04-07 03:52:00,22.0,10.0,-100.00,SE,135,1.0,3.0,58,0.00,,,-99.99,,2013-04-07 07:52:00,
2013-04-07 04:02:00,22.0,10.0,-100.00,South,185,0.0,1.0,58,0.00,,,-99.99,,2013-04-07 08:02:00,
2013-04-07 04:12:00,22.0,11.0,-100.00,SSW,210,0.0,1.0,59,0.00,,,-99.99,,2013-04-07 08:12:00,
2013-04-07 04:22:00,22.0,10.0,-100.00,NNW,340,1.0,2.0,57,0.00,,,-99.99,,2013-04-07 08:22:00,
2013-04-07 04:33:00,22.0,10.0,-100.00,ENE,60,0.0,1.0,58,0.00,,,-99.99,,2013-04-07 08:33:00,
2013-04-07 04:42:00,22.0,10.0,-100.00,NW,315,0.0,2.0,57,0.00,,,-99.99,,2013-04-07 08:42:00,
2013-04-07 04:52:00,22.0,10.0,-100.00,North,355,1.0,1.0,59,0.00,,,-99.99,,2013-04-07 08:52:00,
2013-04-07 05:02:00,23.0,11.0,-100.00,NNW,335,0.0,1.0,58,0.00,,,-99.99,,2013-04-07 09:02:00,
2013-04-07 05:12:00,23.0,11.0,-100.00,ENE,75,0.0,1.0,58,0.00,,,-99.99,,2013-04-07 09:12:00,
2013-04-07 05:22:00,24.0,11.0,-100.00,SSE,155,0.0,1.0,58,0.00,,,-99.99,,2013-04-07 09:22:00,
2013-04-07 05:33:00,24.0,11.0,-100.00,SSE,155,1.0,2.0,56,0.00,,,-99.99,,2013-04-07 09:33:00,
2013-04-07 05:43:00,24.0,11.0,-100.00,SSE,160,1.0,2.0,56,0.00,,,-99.99,,2013-04-07 09:43:00,
2013-04-07 05:53:00,25.0,10.0,-100.00,North,-999,-999.0,-999.0,53,-99.99,,,-99.99,,2013-04-07 09:53:00,
2013-04-07 06:04:00,25.0,11.0,-100.00,NW,325,1.0,1.0,54,0.00,,,-99.99,,2013-04-07 10:04:00,
2013-04-07 06:13:00,24.0,11.0,-100.00,SE,135,0.0,1.0,55,0.00,,,-99.99,,2013-04-07 10:13:00,
2013-04-07 06:23:00,24.0,10.0,-100.00,North,5,0.0,1.0,55,0.00,,,-99.99,,2013-04-07 10:23:00,
2013-04-07 06:33:00,23.0,10.0,-100.00,WNW,290,0.0,1.0,57,0.00,,,-99.99,,2013-04-07 10:33:00,
2013-04-07 06:43:00,23.0,11.0,-100.00,WNW,290,0.0,1.0,58,0.00,,,-99.99,,2013-04-07 10:43:00,
2013-04-07 06:53:00,23.0,11.0,-100.00,ESE,105,0.0,2.0,59,0.00,,,-99.99,,2013-04-07 10:53:00,
2013-04-07 07:03:00,23.0,11.0,-100.00,North,5,1.0,2.0,59,0.00,,,-99.99,,2013-04-07 11:03:00,
2013-04-07 07:12:00,24.0,12.0,-100.00,South,180,0.0,1.0,58,0.00,,,-99.99,,2013-04-07 11:12:00,
2013-04-07 07:22:00,25.0,12.0,-100.00,ENE,75,0.0,1.0,58,0.00,,,-99.99,,2013-04-07 11:22:00,
2013-04-07 07:33:00,26.0,13.0,-100.00,NNW,345,4.0,4.0,55,0.00,,,-99.99,,2013-04-07 11:33:00,
2013-04-07 07:42:00,27.0,11.0,-100.00,NNW,345,1.0,4.0,50,0.00,,,-99.99,,2013-04-07 11:42:00,
2013-04-07 07:52:00,28.0,13.0,-100.00,North,-999,-999.0,-999.0,52,0.00,,,-99.99,,2013-04-07 11:52:00,
2013-04-07 08:02:00,29.0,13.0,-100.00,SSW,200,1.0,2.0,50,0.00,,,-99.99,,2013-04-07 12:02:00,
2013-04-07 08:12:00,31.0,9.0,-100.00,SSE,165,1.0,4.0,40,0.00,,,-99.99,,2013-04-07 12:12:00,
2013-04-07 08:23:00,31.0,8.0,-100.00,South,170,3.0,4.0,37,0.00,,,-99.99,,2013-04-07 12:23:00,
2013-04-07 08:34:00,30.0,10.0,-100.00,South,185,3.0,6.0,42,0.00,,,-99.99,,2013-04-07 12:34:00,
2013-04-07 08:43:00,30.0,11.0,-100.00,SSE,165,4.0,5.0,42,0.00,,,-99.99,,2013-04-07 12:43:00,
2013-04-07 08:53:00,32.0,12.0,-100.00,South,170,3.0,5.0,42,0.00,,,-99.99,,2013-04-07 12:53:00,
2013-04-07 09:04:00,34.0,10.0,-100.00,SE,140,4.0,7.0,36,0.00,,,-99.99,,2013-04-07 13:04:00,
2013-04-07 09:13:00,35.0,8.0,-100.00,SE,145,4.0,7.0,31,0.00,,,-99.99,,2013-04-07 13:13:00,
2013-04-07 09:22:00,36.0,9.0,-100.00,SSE,160,3.0,7.0,31,0.00,,,-99.99,,2013-04-07 13:22:00,
2013-04-07 09:32:00,37.0,9.0,-100.00,South,175,4.0,7.0,31,0.00,,,-99.99,,2013-04-07 13:32:00,
2013-04-07 09:42:00,37.0,10.0,-100.00,SE,135,6.0,9.0,32,0.00,,,-99.99,,2013-04-07 13:42:00,
2013-04-07 10:02:00,37.0,11.0,-100.00,South,180,2.0,6.0,33,0.00,,,-99.99,,2013-04-07 14:02:00,
2013-04-07 10:12:00,38.0,11.0,-100.00,South,185,2.0,6.0,32,0.00,,,-99.99,,2013-04-07 14:12:00,
2013-04-07 10:23:00,38.0,11.0,-100.00,East,95,1.0,6.0,33,0.00,,,-99.99,,2013-04-07 14:23:00,
2013-04-07 10:33:00,38.0,11.0,-100.00,SSE,160,2.0,7.0,32,0.00,,,-99.99,,2013-04-07 14:33:00,
2013-04-07 10:43:00,38.0,11.0,-100.00,SSE,160,4.0,9.0,31,0.00,,,-99.99,,2013-04-07 14:43:00,
2013-04-07 10:53:00,38.0,12.0,-100.00,South,185,2.0,11.0,32,0.00,,,-99.99,,2013-04-07 14:53:00,
2013-04-07 11:03:00,39.0,12.0,-100.00,South,170,2.0,7.0,32,0.00,,,-99.99,,2013-04-07 15:03:00,
2013-04-07 11:13:00,40.0,11.0,-100.00,South,180,4.0,8.0,30,0.00,,,-99.99,,2013-04-07 15:13:00,
2013-04-07 11:22:00,41.0,10.0,-100.00,SSE,155,5.0,12.0,27,0.00,,,-99.99,,2013-04-07 15:22:00,
2013-04-07 11:34:00,41.0,10.0,-100.00,SSE,155,4.0,13.0,27,0.00,,,-99.99,,2013-04-07 15:34:00,
2013-04-07 11:44:00,42.0,10.0,-100.00,South,170,6.0,12.0,26,0.00,,,-99.99,,2013-04-07 15:44:00,
2013-04-07 11:53:00,42.0,10.0,-100.00,SE,130,4.0,13.0,26,0.00,,,-99.99,,2013-04-07 15:53:00,
2013-04-07 12:04:00,42.0,11.0,-100.00,SSE,165,4.0,12.0,27,0.00,,,-99.99,,2013-04-07 16:04:00,
2013-04-07 12:13:00,42.0,11.0,-100.00,SSE,150,6.0,14.0,27,0.00,,,-99.99,,2013-04-07 16:13:00,
2013-04-07 12:24:00,43.0,11.0,-100.00,South,170,7.0,12.0,27,0.00,,,-99.99,,2013-04-07 16:24:00,
2013-04-07 12:33:00,44.0,11.0,-100.00,SE,135,6.0,14.0,25,0.00,,,-99.99,,2013-04-07 16:33:00,
2013-04-07 12:43:00,43.0,12.0,-100.00,SE,145,9.0,16.0,27,0.00,,,-99.99,,2013-04-07 16:43:00,
2013-04-07 12:53:00,44.0,11.0,-100.00,SE,145,7.0,12.0,25,0.00,,,-99.99,,2013-04-07 16:53:00,
2013-04-07 13:05:00,46.0,12.0,-100.00,SSE,160,3.0,16.0,25,0.00,,,-99.99,,2013-04-07 17:05:00,
2013-04-07 13:13:00,45.0,12.0,-100.00,SSE,150,4.0,16.0,25,0.00,,,-99.99,,2013-04-07 17:13:00,
2013-04-07 13:23:00,46.0,12.0,-100.00,SSE,155,6.0,12.0,24,0.00,,,-99.99,,2013-04-07 17:23:00,
2013-04-07 13:33:00,47.0,12.0,-100.00,South,180,6.0,14.0,24,0.00,,,-99.99,,2013-04-07 17:33:00,
2013-04-07 13:43:00,47.0,11.0,-100.00,West,265,3.0,16.0,23,0.00,,,-99.99,,2013-04-07 17:43:00,
2013-04-07 13:52:00,48.0,11.0,-100.00,SSE,155,3.0,8.0,21,0.00,,,-99.99,,2013-04-07 17:52:00,
2013-04-07 14:02:00,47.0,11.0,-100.00,SSE,160,7.0,16.0,22,0.00,,,-99.99,,2013-04-07 18:02:00,
2013-04-07 14:13:00,49.0,12.0,-100.00,South,185,4.0,11.0,22,0.00,,,-99.99,,2013-04-07 18:13:00,
2013-04-07 14:23:00,49.0,12.0,-100.00,South,170,6.0,15.0,22,0.00,,,-99.99,,2013-04-07 18:23:00,
2013-04-07 14:33:00,49.0,12.0,-100.00,South,170,6.0,15.0,22,0.00,,,-99.99,,2013-04-07 18:33:00,
2013-04-07 14:43:00,50.0,14.0,-100.00,SSE,165,5.0,14.0,22,0.00,,,-99.99,,2013-04-07 18:43:00,
2013-04-07 14:52:00,51.0,14.0,-100.00,South,175,7.0,15.0,23,0.00,,,-99.99,,2013-04-07 18:52:00,
2013-04-07 15:03:00,52.0,14.0,-100.00,SE,145,7.0,16.0,22,0.00,,,-99.99,,2013-04-07 19:03:00,
2013-04-07 15:13:00,52.0,15.0,-100.00,ESE,115,5.0,15.0,22,0.00,,,-99.99,,2013-04-07 19:13:00,
2013-04-07 15:22:00,52.0,15.0,-100.00,SSE,150,9.0,14.0,22,0.00,,,-99.99,,2013-04-07 19:22:00,
2013-04-07 15:33:00,53.0,15.0,-100.00,ESE,115,3.0,12.0,21,0.00,,,-99.99,,2013-04-07 19:33:00,
2013-04-07 15:42:00,53.0,14.0,-100.00,SSE,160,6.0,13.0,20,0.00,,,-99.99,,2013-04-07 19:42:00,
2013-04-07 15:53:00,53.0,14.0,-100.00,South,175,5.0,15.0,21,0.00,,,-99.99,,2013-04-07 19:53:00,
2013-04-07 16:03:00,53.0,14.0,-100.00,South,180,6.0,15.0,21,0.00,,,-99.99,,2013-04-07 20:03:00,
2013-04-07 16:13:00,54.0,15.0,-100.00,WSW,245,3.0,14.0,21,0.00,,,-99.99,,2013-04-07 20:13:00,
2013-04-07 16:22:00,53.0,15.0,-100.00,SSE,150,6.0,13.0,21,0.00,,,-99.99,,2013-04-07 20:22:00,
2013-04-07 16:33:00,53.0,17.0,-100.00,South,190,2.0,13.0,24,0.00,,,-99.99,,2013-04-07 20:33:00,
2013-04-07 16:43:00,53.0,18.0,-100.00,SSE,155,6.0,11.0,24,0.00,,,-99.99,,2013-04-07 20:43:00,
2013-04-07 16:52:00,54.0,19.0,-100.00,SSE,150,2.0,14.0,25,0.00,,,-99.99,,2013-04-07 20:52:00,
2013-04-07 17:03:00,55.0,20.0,-100.00,North,10,3.0,12.0,25,0.00,,,-99.99,,2013-04-07 21:03:00,
2013-04-07 17:13:00,54.0,21.0,-100.00,SSW,195,2.0,21.0,26,0.00,,,-99.99,,2013-04-07 21:13:00,
2013-04-07 17:22:00,54.0,21.0,-100.00,South,185,6.0,12.0,26,0.00,,,-99.99,,2013-04-07 21:22:00,
2013-04-07 17:34:00,54.0,21.0,-100.00,South,175,4.0,10.0,27,0.00,,,-99.99,,2013-04-07 21:34:00,
2013-04-07 17:43:00,53.0,22.0,-100.00,ESE,110,4.0,14.0,28,0.00,,,-99.99,,2013-04-07 21:43:00,
2013-04-07 17:53:00,53.0,22.0,-100.00,South,170,1.0,11.0,28,0.00,,,-99.99,,2013-04-07 21:53:00,
2013-04-07 18:04:00,53.0,22.0,-100.00,SSW,210,2.0,9.0,29,0.00,,,-99.99,,2013-04-07 22:04:00,
2013-04-07 18:14:00,52.0,23.0,-100.00,ENE,75,2.0,7.0,31,0.00,,,-99.99,,2013-04-07 22:14:00,
2013-04-07 18:23:00,52.0,22.0,-100.00,South,175,1.0,5.0,30,0.00,,,-99.99,,2013-04-07 22:23:00,
2013-04-07 18:34:00,52.0,24.0,-100.00,South,170,4.0,7.0,33,0.00,,,-99.99,,2013-04-07 22:34:00,
2013-04-07 18:43:00,50.0,28.0,-100.00,West,265,1.0,4.0,42,0.00,,,-99.99,,2013-04-07 22:43:00,
2013-04-07 18:53:00,50.0,26.0,-100.00,West,265,1.0,5.0,39,0.00,,,-99.99,,2013-04-07 22:53:00,
2013-04-07 19:13:00,50.0,24.0,-100.00,North,5,2.0,6.0,35,0.00,,,-99.99,,2013-04-07 23:13:00,
2013-04-07 19:22:00,50.0,24.0,-100.00,SSE,155,6.0,11.0,35,0.00,,,-99.99,,2013-04-07 23:22:00,
2013-04-07 19:32:00,50.0,24.0,-100.00,East,85,2.0,9.0,35,0.00,,,-99.99,,2013-04-07 23:32:00,
2013-04-07 19:43:00,49.0,25.0,-100.00,ESE,115,1.0,7.0,38,0.00,,,-99.99,,2013-04-07 23:43:00,
2013-04-07 19:52:00,49.0,25.0,-100.00,East,85,1.0,7.0,38,0.00,,,-99.99,,2013-04-07 23:52:00,
2013-04-07 20:02:00,47.0,26.0,-100.00,South,190,2.0,7.0,42,0.00,,,-99.99,,2013-04-08 00:02:00,
2013-04-07 20:12:00,47.0,25.0,-100.00,South,175,2.0,7.0,40,0.00,,,-99.99,,2013-04-08 00:12:00,
2013-04-07 20:22:00,47.0,25.0,-100.00,South,175,3.0,7.0,41,0.00,,,-99.99,,2013-04-08 00:22:00,
2013-04-07 20:32:00,46.0,26.0,-100.00,SE,135,3.0,7.0,45,0.00,,,-99.99,,2013-04-08 00:32:00,
2013-04-07 20:42:00,46.0,27.0,-100.00,South,170,1.0,4.0,47,0.00,,,-99.99,,2013-04-08 00:42:00,
2013-04-07 20:52:00,45.0,28.0,-100.00,SSE,155,2.0,6.0,49,0.00,,,-99.99,,2013-04-08 00:52:00,
2013-04-07 21:03:00,46.0,27.0,-100.00,East,100,2.0,7.0,47,0.00,,,-99.99,,2013-04-08 01:03:00,
2013-04-07 21:12:00,46.0,28.0,-100.00,SSE,165,4.0,7.0,48,0.00,,,-99.99,,2013-04-08 01:12:00,
2013-04-07 21:22:00,45.0,28.0,-100.00,SE,145,2.0,4.0,51,0.00,,,-99.99,,2013-04-08 01:22:00,
2013-04-07 21:33:00,44.0,28.0,-100.00,South,185,2.0,6.0,53,0.00,,,-99.99,,2013-04-08 01:33:00,
2013-04-07 21:43:00,43.0,29.0,-100.00,SW,215,2.0,4.0,58,0.00,,,-99.99,,2013-04-08 01:43:00,
2013-04-07 21:53:00,44.0,29.0,-100.00,SW,215,2.0,6.0,55,0.00,,,-99.99,,2013-04-08 01:53:00,
2013-04-07 22:03:00,44.0,29.0,-100.00,ENE,65,1.0,6.0,56,0.00,,,-99.99,,2013-04-08 02:03:00,
2013-04-07 22:12:00,43.0,29.0,-100.00,SSW,195,3.0,7.0,57,0.00,,,-99.99,,2013-04-08 02:12:00,
2013-04-07 22:22:00,43.0,29.0,-100.00,ESE,120,2.0,9.0,57,0.00,,,-99.99,,2013-04-08 02:22:00,
2013-04-07 22:33:00,43.0,29.0,-100.00,SE,130,2.0,4.0,58,0.00,,,-99.99,,2013-04-08 02:33:00,
2013-04-07 22:47:00,43.0,30.0,-100.00,SSW,205,1.0,6.0,59,0.00,,,-99.99,,2013-04-08 02:47:00,
2013-04-07 22:53:00,43.0,29.0,-100.00,SSE,155,2.0,7.0,59,0.00,,,-99.99,,2013-04-08 02:53:00,
2013-04-07 23:08:00,42.0,29.0,-100.00,SSE,165,1.0,5.0,61,0.00,,,-99.99,,2013-04-08 03:08:00,
2013-04-07 23:15:00,41.0,30.0,-100.00,SSE,165,1.0,7.0,64,0.00,,,-99.99,,2013-04-08 03:15:00,
2013-04-07 23:25:00,41.0,30.0,-100.00,South,170,2.0,9.0,65,0.00,,,-99.99,,2013-04-08 03:25:00,
2013-04-07 23:34:00,40.0,30.0,-100.00,SSE,150,2.0,5.0,66,0.00,,,-99.99,,2013-04-08 03:34:00,
2013-04-07 23:47:00,41.0,31.0,-100.00,SSE,160,2.0,7.0,67,0.00,,,-99.99,,2013-04-08 03:47:00,
2013-04-07 23:53:00,41.0,31.0,-100.00,SSE,160,2.0,6.0,68,0.00,,,-99.99,,2013-04-08 03:53:00,